METAR UND TAF INFORMATION
EDJA 161050Z 24009KT 9999 SCT016 19/17 Q1017

 FLUGHAFENKARTE

 RUNWAY INFORMATION
Runway 06 Runway length 9780 ft Runway width 98 ft
Runway elevation 2077 ft Runway displaced threshold 953 ft Runway heading 59
Runway 24 Runway length 9780 ft Runway width 98 ft
Runway elevation 2077 ft Runway displaced threshold 953 ft Runway heading 239

 AIRPORT FREQUENCIES
Type AFIS Name MUNCHEN IN Frequency 126.95 MHZ
Type INFO Name INFO Frequency 135.6 MHZ

 AIRPORT NEAR NAVIGATION AIDS